Weather reports worldwide

Advertisment
Baltasound, United Kingdom (3002): temperature & dewpoint: 23.04.2017 06:00:00 - 29.04.2017 06:00:00 (BST)Baltasound, United Kingdom (3002): temperature -20cm: 23.04.2017 06:00:00 - 29.04.2017 06:00:00 (BST)Baltasound, United Kingdom (3002): wind speed & gusts: 23.04.2017 06:00:00 - 29.04.2017 06:00:00 (BST)Baltasound, United Kingdom (3002): wind direction: 23.04.2017 06:00:00 - 29.04.2017 06:00:00 (BST)Baltasound, United Kingdom (3002): reduced air pressure: 23.04.2017 06:00:00 - 29.04.2017 06:00:00 (BST)Baltasound, United Kingdom (3002): visibility: 23.04.2017 06:00:00 - 29.04.2017 06:00:00 (BST)Baltasound, United Kingdom (3002): precipitation: 23.04.2017 06:00:00 - 29.04.2017 06:00:00 (BST)
Date & Time tt [°C] td [°C] tt -20cm [°C] ff [km/h] ff [kn] fx [km/h] fx [kn] dd ppp [hPa] vv [km] rr [mm]
29.04.2017 06:00:00 4,5 -1,5 - 18 10 - - SSE 1015,0 50 0,0
29.04.2017 05:00:00 3,7 -2,0 - 18 10 - - SE 1014,9 50 0,0
29.04.2017 04:00:00 3,8 -1,7 - 18 10 - - SSE 1014,8 50 0,0
29.04.2017 03:00:00 2,9 -1,9 - 15 8 - - SSE 1014,8 50 0,0
29.04.2017 02:00:00 2,7 -1,8 - 15 8 - - SE 1014,8 50 0,0
29.04.2017 01:00:00 2,1 -2,5 - 13 7 - - SE 1014,9 50 0,0
29.04.2017 00:00:00 2,5 -1,9 - 15 8 - - SE 1015,2 50 0,0
28.04.2017 23:00:00 2,1 -2,0 - 13 7 - - SE 1015,5 50 0,0
28.04.2017 22:00:00 3,3 -1,1 - 13 7 - - ESE 1015,7 45 0,0
28.04.2017 21:00:00 5,0 -0,4 - 15 8 - - ESE 1015,8 45 0,0
28.04.2017 20:00:00 6,4 0,1 - 11 6 - - ESE 1015,6 40 0,0
28.04.2017 19:00:00 7,6 0,5 - 13 7 - - ESE 1015,5 35 0,0
28.04.2017 18:00:00 7,9 0,9 - 15 8 - - E 1015,5 45 0,0
28.04.2017 17:00:00 7,9 1,5 - 16 9 - - E 1015,7 30 0,0
28.04.2017 16:00:00 8,2 2,3 - 13 7 - - E 1016,0 45 0,0
28.04.2017 15:00:00 7,7 1,5 - 13 7 - - ENE 1016,3 30 0,0
28.04.2017 14:00:00 8,0 1,6 - 13 7 - - ENE 1016,5 28 0,0
28.04.2017 13:00:00 8,1 1,5 - 15 8 - - ENE 1016,6 50 0,0
28.04.2017 12:00:00 7,7 0,7 - 16 9 - - ENE 1016,7 17 0,0
28.04.2017 11:00:00 7,9 0,4 - 18 10 - - ENE 1016,9 35 0,0
28.04.2017 10:00:00 7,5 -0,2 6,7 18 10 - - ENE 1017,1 35 0,0
28.04.2017 09:00:00 7,3 0,4 - 15 8 - - NE 1017,2 27 0,0
28.04.2017 08:00:00 5,8 0,2 - 13 7 - - NE 1017,2 40 0,0
28.04.2017 07:00:00 5,2 0,4 - 13 7 - - NE 1017,3 45 0,0
28.04.2017 06:00:00 1,7 -0,1 - 4 2 - - SW 1017,3 35 0,0
28.04.2017 05:00:00 2,1 0,0 - 9 5 - - NNE 1017,1 40 0,0
28.04.2017 04:00:00 1,1 -1,1 - 4 2 - - NNW 1017,1 45 0,0
28.04.2017 03:00:00 3,4 0,1 - 13 7 - - N 1017,1 50 0,0
28.04.2017 02:00:00 1,5 -0,8 - 5 3 - - NW 1017,3 35 0,0
28.04.2017 01:00:00 3,0 0,2 - 11 6 - - N 1017,2 40 0,0
28.04.2017 00:00:00 3,2 -0,5 - 11 6 - - N 1017,2 50 0,0
27.04.2017 23:00:00 4,9 -0,1 - 16 9 - - N 1017,1 40 0,0
27.04.2017 22:00:00 5,2 -1,5 - 22 12 - - NNE 1017,1 50 0,0
27.04.2017 21:00:00 5,1 0,0 - 26 14 - - N 1016,9 40 0,0
27.04.2017 20:00:00 5,7 0,6 - 24 13 - - N 1016,6 30 0,0
27.04.2017 19:00:00 6,3 2,1 - 26 14 - - NNE 1016,2 25 0,0
27.04.2017 18:00:00 6,8 2,5 - 24 13 - - NNE 1015,7 50 0,0
27.04.2017 17:00:00 6,9 3,3 - 22 12 - - NE 1015,4 35 0,0
27.04.2017 16:00:00 7,7 2,9 - 26 14 - - NNE 1015,1 27 0,0
27.04.2017 15:00:00 8,0 4,5 - 22 12 - - NE 1014,8 35 0,0
27.04.2017 14:00:00 8,1 4,5 - 29 16 46 25 NE 1014,1 25 0,0
27.04.2017 13:00:00 7,9 4,0 - 37 20 48 26 NNE 1013,3 35 0,0
27.04.2017 12:00:00 8,1 4,1 - 37 20 48 26 NNE 1012,6 24 0,0
27.04.2017 11:00:00 7,7 3,1 - 37 20 48 26 N 1012,1 30 0,0
27.04.2017 10:00:00 7,8 3,2 6,2 34 18 46 25 NNE 1011,4 35 0,0
27.04.2017 09:00:00 6,6 3,4 - 29 16 - - N 1010,9 40 0,0
27.04.2017 08:00:00 5,9 3,9 - 29 16 - - N 1010,4 17 0,2
27.04.2017 07:00:00 5,4 2,0 - 24 13 - - N 1010,1 50 0,0
27.04.2017 06:00:00 5,2 2,1 - 29 16 - - N 1009,6 27 0,0
27.04.2017 05:00:00 5,1 3,1 - 29 16 - - N 1009,0 40 0,0
27.04.2017 04:00:00 5,3 3,8 - 29 16 48 26 NNW 1008,6 30 0,0
27.04.2017 03:00:00 5,4 3,8 - 29 16 52 28 NNW 1008,5 29 0,2
27.04.2017 02:00:00 5,4 4,2 - 37 20 59 32 NW 1008,4 4,2 0,0
27.04.2017 01:00:00 5,9 5,0 - 44 24 57 31 NW 1008,4 1,8 0,6
27.04.2017 00:00:00 6,4 5,5 - 41 22 55 30 NW 1008,6 17 0,2
26.04.2017 23:00:00 6,8 5,7 - 42 23 63 34 NW 1008,8 2,8 0,4
26.04.2017 22:00:00 7,2 5,9 - 44 24 59 32 WNW 1009,2 8 0,2
26.04.2017 21:00:00 7,2 6,3 - 39 21 52 28 WNW 1009,6 8 0,6
26.04.2017 20:00:00 6,9 6,0 - 31 17 48 26 WNW 1010,8 9 -
26.04.2017 19:00:00 6,6 5,4 - 39 21 50 27 WNW 1011,5 8 1,2
26.04.2017 18:00:00 6,2 4,6 - 34 18 52 28 W 1012,3 12 0,0
26.04.2017 17:00:00 5,9 3,9 - 39 21 50 27 W 1013,3 8 0,4
26.04.2017 16:00:00 6,2 2,6 - 34 18 - - W 1014,4 29 0,0
26.04.2017 15:00:00 6,1 2,1 - 28 15 - - W 1015,3 20 0,0
26.04.2017 14:00:00 4,7 0,9 - 24 13 - - WNW 1016,4 14 0,0
26.04.2017 13:00:00 5,7 0,5 - 21 11 - - W 1016,6 50 0,0
26.04.2017 12:00:00 5,6 0,5 - 15 8 - - WNW 1017,1 45 0,0
26.04.2017 11:00:00 5,5 0,8 - 15 8 - - NW 1017,3 45 0,0
26.04.2017 10:00:00 3,7 0,6 5,9 24 13 - - NW 1017,9 19 0,2
26.04.2017 09:00:00 4,3 -0,5 - 24 13 - - NW 1017,7 35 0,0
26.04.2017 08:00:00 3,6 -1,0 - 24 13 - - NW 1017,7 27 0,0
26.04.2017 07:00:00 3,0 -2,3 - 22 12 - - NW 1017,5 50 0,0
26.04.2017 06:00:00 2,8 -1,5 - 22 12 - - NW 1017,5 35 0,0
26.04.2017 05:00:00 2,3 -0,7 - 22 12 - - NNW 1017,6 35 0,0
26.04.2017 04:00:00 1,9 -0,3 - 9 5 - - NNW 1017,8 30 0,4
26.04.2017 03:00:00 2,9 -1,0 - 26 14 - - NNW 1018,1 13 0,0
26.04.2017 02:00:00 2,9 -1,0 - 21 11 - - NNW 1018,0 35 0,0
26.04.2017 01:00:00 2,9 -4,0 - 26 14 46 25 N 1018,0 45 0,0
26.04.2017 00:00:00 2,8 -4,2 - 29 16 - - N 1018,2 40 0,0
25.04.2017 23:00:00 3,1 -2,7 - 28 15 48 26 NNW 1018,3 27 0,0
25.04.2017 22:00:00 3,2 -2,4 - 29 16 52 28 N 1018,4 30 0,0
25.04.2017 21:00:00 3,6 -1,3 - 35 19 55 30 N 1018,3 25 0,0
25.04.2017 20:00:00 4,0 -0,3 - 39 21 55 30 NNW 1017,9 15 0,0
25.04.2017 19:00:00 4,3 -0,3 - 46 25 65 35 NNW 1017,4 24 0,0
25.04.2017 18:00:00 2,7 1,0 - 46 25 61 33 N 1017,4 5 0,6
25.04.2017 17:00:00 4,3 2,1 - 41 22 72 39 N 1016,9 12 1,0
25.04.2017 16:00:00 3,0 2,0 - 48 26 72 39 N 1016,7 7 1,4
25.04.2017 15:00:00 4,5 1,6 - 52 28 72 39 N 1016,5 18 0,0
25.04.2017 14:00:00 4,8 1,8 - 50 27 74 40 N 1015,9 20 0,2
25.04.2017 13:00:00 5,3 2,0 - 52 28 76 41 N 1015,4 16 0,0
25.04.2017 12:00:00 5,1 2,3 - 55 30 81 44 N 1014,8 25 0,0
25.04.2017 11:00:00 5,1 2,1 - 61 33 87 47 N 1014,3 16 0,2
25.04.2017 10:00:00 4,3 2,0 6,0 59 32 89 48 N 1013,5 10 0,2
25.04.2017 09:00:00 4,0 0,8 - 46 25 76 41 N 1013,0 17 0,2
25.04.2017 08:00:00 4,5 1,7 - 48 26 80 43 N 1012,4 24 0,4
25.04.2017 07:00:00 4,3 1,3 - 48 26 72 39 N 1011,7 19 0,0
25.04.2017 06:00:00 3,8 0,9 - 48 26 70 38 N 1011,1 23 0,2
25.04.2017 05:00:00 2,8 1,3 - 61 33 81 44 N 1010,7 2,6 1,4
25.04.2017 04:00:00 3,0 2,0 - 34 18 61 33 N 1009,9 11 0,8
25.04.2017 03:00:00 2,9 1,7 - 46 25 63 34 NNE 1009,5 14 1,0
25.04.2017 02:00:00 2,6 1,0 - 48 26 70 38 NNE 1009,0 5 0,6
25.04.2017 01:00:00 2,5 1,4 - 46 25 83 45 N 1008,6 2,1 2,8
25.04.2017 00:00:00 2,4 0,8 - 54 29 72 39 N 1008,9 6 0,4
24.04.2017 23:00:00 4,0 0,3 - 41 22 70 38 NNW 1008,5 14 0,0
24.04.2017 22:00:00 3,8 1,5 - 48 26 80 43 N 1008,7 13 0,8
24.04.2017 21:00:00 4,7 1,2 - 48 26 70 38 N 1008,5 10 0,0
24.04.2017 20:00:00 2,6 1,1 - 34 18 63 34 NNW 1008,3 35 1,4
24.04.2017 19:00:00 2,7 0,1 - 39 21 54 29 NW 1008,9 12 0,0
24.04.2017 18:00:00 4,1 -3,1 - 29 16 - - NNW 1009,6 50 0,0
24.04.2017 17:00:00 3,2 -1,4 - 26 14 - - NNW 1010,1 24 0,0
24.04.2017 16:00:00 3,4 -5,0 - 26 14 - - N 1010,0 50 0,0
24.04.2017 15:00:00 3,6 -3,5 - 28 15 - - NNW 1009,8 29 0,0
24.04.2017 14:00:00 4,1 -4,3 - 28 15 - - NNW 1009,9 30 0,0
24.04.2017 13:00:00 2,8 -2,8 - 29 16 - - NW 1010,0 7 0,0
24.04.2017 12:00:00 1,6 -2,4 - 29 16 - - NW 1010,2 28 0,0
24.04.2017 11:00:00 1,6 -3,4 - 34 18 46 25 NNW 1010,3 6 0,0
24.04.2017 10:00:00 1,4 -2,9 6,0 29 16 46 25 N 1010,2 35 0,0
24.04.2017 09:00:00 2,3 -4,6 - 31 17 48 26 NNW 1010,2 40 0,0
24.04.2017 08:00:00 1,8 -2,8 - 31 17 46 25 NNW 1010,5 27 0,0
24.04.2017 07:00:00 1,3 -2,3 - 29 16 50 27 NNW 1010,6 30 0,0
24.04.2017 06:00:00 1,1 -3,0 - 26 14 - - N 1010,9 40 0,0
24.04.2017 05:00:00 1,9 -2,6 - 26 14 - - N 1010,9 35 0,0
24.04.2017 04:00:00 2,2 -3,3 - 26 14 - - N 1011,0 40 0,0
24.04.2017 03:00:00 2,3 -3,2 - 24 13 52 28 N 1011,0 35 0,0
24.04.2017 02:00:00 2,4 -2,0 - 34 18 52 28 N 1011,0 35 0,0
24.04.2017 01:00:00 2,5 -2,9 - 31 17 - - N 1010,8 40 0,0
24.04.2017 00:00:00 2,6 -2,9 - 34 18 48 26 NNE 1010,5 50 0,0
23.04.2017 23:00:00 3,2 -1,1 - 37 20 52 28 NNE 1009,9 30 0,0
23.04.2017 22:00:00 2,8 0,6 - 35 19 54 29 NE 1009,6 40 0,4
23.04.2017 21:00:00 1,9 0,6 - 35 19 50 27 NE 1009,2 28 1,8
23.04.2017 20:00:00 1,3 0,7 - 35 19 48 26 ENE 1009,2 3,5 1,4
23.04.2017 19:00:00 0,5 0,2 - 21 11 - - ENE 1009,8 4,2 0,8
23.04.2017 18:00:00 0,2 -0,2 - 26 14 - - ENE 1010,4 1,0 0,6
23.04.2017 17:00:00 0,6 -0,1 - 26 14 - - ENE 1011,2 1,7 1,4
23.04.2017 16:00:00 1,4 0,2 - 18 10 - - NE 1012,7 5 0,6
23.04.2017 15:00:00 2,7 0,1 - 11 6 - - NNE 1014,2 15 0,4
23.04.2017 14:00:00 3,9 -0,5 - 9 5 - - N 1015,2 16 0,0
23.04.2017 13:00:00 5,0 -0,1 - 11 6 - - N 1016,0 35 0,0
23.04.2017 12:00:00 5,2 0,5 - 21 11 - - NNW 1016,7 30 0,0
23.04.2017 11:00:00 4,7 2,0 - 22 12 - - N 1017,1 45 0,0
23.04.2017 10:00:00 4,9 2,1 6,5 35 19 54 29 NNW 1016,9 40 0,0
23.04.2017 09:00:00 5,0 1,7 - 35 19 57 31 W 1016,9 40 0,0
23.04.2017 08:00:00 4,6 2,7 - 29 16 46 25 W 1017,3 35 0,6
23.04.2017 07:00:00 1,5 0,6 - 15 8 - - SW 1018,0 45 2,0
23.04.2017 06:00:00 2,0 0,2 - 18 10 - - SW 1019,2 5 1,0

tt = temperature
td = dewpoint
tt -20cm = temperature -20cm
ff = wind speed
fx = gusts
dd = wind direction
ppp = reduced air pressure
vv = visibility
rr = precipitation

Next stations